Tiempo cada hora Golaghat

Hoy, 28 Noviembre, Sábado

Tiempo Temperatura Precipitaciones Viento Presión Humedad
00:00 +19°C° 0 mm 1 mps 754 mmHg 80%
01:00 +17°C° 0 mm 0 mps 754 mmHg 79%
02:00 +17°C° 0 mm 0 mps 754 mmHg 79%
03:00 +17°C° 0 mm 0 mps 754 mmHg 79%
04:00 +17°C° 0 mm 0 mps 754 mmHg 78%
05:00 +17°C° 0 mm 0 mps 754 mmHg 78%
06:00 +19°C° 0 mm 1 mps 755 mmHg 80%
07:00 +20°C° 0 mm 1 mps 755 mmHg 76%
08:00 +21°C° 0 mm 1 mps 755 mmHg 73%
09:00 +23°C° 0 mm 1 mps 755 mmHg 70%
10:00 +24°C° 0 mm 1 mps 755 mmHg 65%
11:00 +25°C° 0 mm 1 mps 754 mmHg 60%
12:00 +27°C° 0 mm 1 mps 753 mmHg 56%
13:00 +27°C° 0 mm 1 mps 753 mmHg 56%
14:00 +25°C° 0 mm 0 mps 752 mmHg 56%
15:00 +25°C° 0 mm 0 mps 751 mmHg 56%
16:00 +23°C° 0 mm 0 mps 752 mmHg 62%
17:00 +21°C° 0 mm 0 mps 752 mmHg 69%
18:00 +19°C° 0 mm 0 mps 753 mmHg 75%
19:00 +19°C° 0 mm 0 mps 753 mmHg 77%
20:00 +20°C° 0 mm 1 mps 753 mmHg 80%
21:00 +20°C° 0 mm 1 mps 754 mmHg 82%
22:00 +19°C° 0 mm 1 mps 754 mmHg 83%
23:00 +17°C° 0 mm 0 mps 754 mmHg 84%

Mañana, 29 Noviembre, Domingo

Tiempo Temperatura Precipitaciones Viento Presión Humedad
00:00 +16°C° 0 mm 0 mps 754 mmHg 85%
01:00 +16°C° 0 mm 0 mps 754 mmHg 86%
02:00 +16°C° 0 mm 0 mps 753 mmHg 87%
03:00 +15°C° 0 mm 0 mps 753 mmHg 88%
04:00 +15°C° 0 mm 0 mps 754 mmHg 89%
05:00 +15°C° 0 mm 0 mps 754 mmHg 89%
06:00 +15°C° 0 mm 0 mps 754 mmHg 90%
07:00 +18°C° 0 mm 1 mps 755 mmHg 85%
08:00 +20°C° 0 mm 1 mps 755 mmHg 79%
09:00 +22°C° 0 mm 1 mps 756 mmHg 74%
10:00 +23°C° 0 mm 1 mps 755 mmHg 69%
11:00 +25°C° 0 mm 2 mps 754 mmHg 65%
12:00 +26°C° 0 mm 2 mps 754 mmHg 61%
13:00 +26°C° 0 mm 2 mps 753 mmHg 61%
14:00 +26°C° 0 mm 2 mps 753 mmHg 61%
15:00 +26°C° 0 mm 1 mps 752 mmHg 61%
16:00 +24°C° 0 mm 1 mps 752 mmHg 67%
17:00 +23°C° 0 mm 1 mps 753 mmHg 74%
18:00 +19°C° 0 mm 0 mps 753 mmHg 81%
19:00 +18°C° 0 mm 0 mps 753 mmHg 82%
20:00 +18°C° 0 mm 0 mps 754 mmHg 84%
21:00 +17°C° 0 mm 0 mps 754 mmHg 85%
22:00 +17°C° 0 mm 0 mps 754 mmHg 86%
23:00 +17°C° 0 mm 0 mps 754 mmHg 87%

Pasado mañana, 30 Noviembre, Lunes

Tiempo Temperatura Precipitaciones Viento Presión Humedad
00:00 +16°C° 0 mm 0 mps 754 mmHg 87%
01:00 +16°C° 0 mm 0 mps 754 mmHg 88%
02:00 +16°C° 0 mm 0 mps 753 mmHg 89%
03:00 +15°C° 0 mm 0 mps 753 mmHg 89%
04:00 +15°C° 0 mm 0 mps 753 mmHg 90%
05:00 +15°C° 0 mm 0 mps 754 mmHg 91%
06:00 +15°C° 0 mm 0 mps 754 mmHg 91%
07:00 +18°C° 0 mm 1 mps 754 mmHg 86%
08:00 +20°C° 0 mm 1 mps 755 mmHg 80%
09:00 +22°C° 0 mm 1 mps 755 mmHg 75%
10:00 +23°C° 0 mm 2 mps 755 mmHg 70%
11:00 +25°C° 0 mm 2 mps 754 mmHg 64%
12:00 +26°C° 0 mm 2 mps 753 mmHg 59%
13:00 +26°C° 0 mm 2 mps 753 mmHg 59%
14:00 +26°C° 0 mm 1 mps 752 mmHg 58%
15:00 +26°C° 0 mm 1 mps 752 mmHg 58%
16:00 +24°C° 0 mm 1 mps 752 mmHg 64%
17:00 +23°C° 0 mm 1 mps 752 mmHg 70%
18:00 +19°C° 0 mm 0 mps 753 mmHg 76%
19:00 +18°C° 0 mm 0 mps 753 mmHg 77%
20:00 +18°C° 0 mm 0 mps 754 mmHg 78%
21:00 +18°C° 0 mm 0 mps 754 mmHg 80%
22:00 +17°C° 0 mm 0 mps 754 mmHg 80%
23:00 +17°C° 0 mm 0 mps 754 mmHg 81%

1 Diciembre, Martes

Tiempo Temperatura Precipitaciones Viento Presión Humedad
00:00 +16°C° 0 mm 0 mps 754 mmHg 82%
01:00 +16°C° 0 mm 0 mps 754 mmHg 83%
02:00 +16°C° 0 mm 0 mps 754 mmHg 84%
03:00 +16°C° 0 mm 0 mps 754 mmHg 85%
04:00 +15°C° 0 mm 0 mps 754 mmHg 86%
05:00 +15°C° 0 mm 0 mps 754 mmHg 87%
06:00 +15°C° 0 mm 0 mps 755 mmHg 87%
07:00 +17°C° 0 mm 0 mps 755 mmHg 82%
08:00 +20°C° 0 mm 1 mps 755 mmHg 77%
09:00 +22°C° 0 mm 1 mps 756 mmHg 72%
10:00 +23°C° 0 mm 1 mps 755 mmHg 69%
11:00 +25°C° 0 mm 1 mps 754 mmHg 65%
12:00 +26°C° 0 mm 2 mps 754 mmHg 61%
13:00 +26°C° 0 mm 2 mps 753 mmHg 61%
14:00 +26°C° 0 mm 1 mps 752 mmHg 61%
15:00 +26°C° 0 mm 1 mps 752 mmHg 60%
16:00 +25°C° 0 mm 1 mps 752 mmHg 67%
17:00 +23°C° 0 mm 1 mps 753 mmHg 73%
18:00 +21°C° 0 mm 1 mps 753 mmHg 79%
19:00 +18°C° 0 mm 0 mps 753 mmHg 80%
20:00 +18°C° 0 mm 0 mps 754 mmHg 82%
21:00 +18°C° 0 mm 0 mps 754 mmHg 83%
22:00 +17°C° 0 mm 0 mps 754 mmHg 83%
23:00 +17°C° 0 mm 0 mps 754 mmHg 84%

2 Diciembre, Miércoles

Tiempo Temperatura Precipitaciones Viento Presión Humedad
00:00 +16°C° 0 mm 0 mps 753 mmHg 85%
01:00 +16°C° 0 mm 0 mps 753 mmHg 86%
02:00 +16°C° 0 mm 0 mps 753 mmHg 86%
03:00 +15°C° 0 mm 0 mps 753 mmHg 87%
04:00 +15°C° 0 mm 0 mps 753 mmHg 87%
05:00 +15°C° 0 mm 0 mps 753 mmHg 88%
06:00 +15°C° 0 mm 0 mps 753 mmHg 88%
07:00 +16°C° 0 mm 0 mps 753 mmHg 82%
08:00 +18°C° 0 mm 0 mps 753 mmHg 77%
09:00 +22°C° 0 mm 1 mps 754 mmHg 72%
10:00 +23°C° 0 mm 1 mps 753 mmHg 67%
11:00 +24°C° 0 mm 1 mps 752 mmHg 63%
12:00 +26°C° 0 mm 1 mps 751 mmHg 59%
13:00 +26°C° 0 mm 1 mps 751 mmHg 59%
14:00 +26°C° 0 mm 1 mps 750 mmHg 58%
15:00 +26°C° 0 mm 1 mps 750 mmHg 58%
16:00 +24°C° 0 mm 1 mps 750 mmHg 63%
17:00 +23°C° 0 mm 1 mps 750 mmHg 69%
18:00 +21°C° 0 mm 1 mps 751 mmHg 75%
19:00 +18°C° 0 mm 0 mps 751 mmHg 77%
20:00 +18°C° 0 mm 0 mps 752 mmHg 79%
21:00 +17°C° 0 mm 0 mps 752 mmHg 81%
22:00 +17°C° 0 mm 0 mps 752 mmHg 81%
23:00 +17°C° 0 mm 0 mps 752 mmHg 81%

3 Diciembre, Jueves

Tiempo Temperatura Precipitaciones Viento Presión Humedad
00:00 +17°C° 0 mm 0 mps 752 mmHg 82%
01:00 +17°C° 0 mm 0 mps 752 mmHg 82%
02:00 +17°C° 0 mm 0 mps 752 mmHg 82%
03:00 +18°C° 0 mm 1 mps 752 mmHg 82%
04:00 +18°C° 0 mm 1 mps 752 mmHg 84%
05:00 +18°C° 0 mm 1 mps 752 mmHg 85%
06:00 +18°C° 0 mm 1 mps 752 mmHg 86%
07:00 +19°C° 0 mm 1 mps 753 mmHg 81%
08:00 +21°C° 0 mm 1 mps 753 mmHg 76%
09:00 +22°C° 0 mm 1 mps 753 mmHg 71%
10:00 +23°C° 0 mm 1 mps 753 mmHg 66%
11:00 +25°C° 0 mm 1 mps 752 mmHg 61%
12:00 +26°C° 0 mm 1 mps 751 mmHg 56%
13:00 +26°C° 0 mm 1 mps 751 mmHg 56%
14:00 +26°C° 0 mm 1 mps 750 mmHg 56%
15:00 +26°C° 0 mm 1 mps 749 mmHg 55%
16:00 +24°C° 0 mm 1 mps 750 mmHg 61%
17:00 +22°C° 0 mm 1 mps 750 mmHg 67%
18:00 +19°C° 0 mm 0 mps 751 mmHg 73%
19:00 +18°C° 0 mm 0 mps 751 mmHg 75%
20:00 +18°C° 0 mm 0 mps 752 mmHg 77%
21:00 +17°C° 0 mm 0 mps 752 mmHg 79%
22:00 +17°C° 0 mm 0 mps 752 mmHg 80%
23:00 +16°C° 0 mm 0 mps 752 mmHg 81%
Mostrar más

Necesitamos Su Consentimiento

Meteoprog y nuestros Proveedores de Servicios pueden almacenar y acceder a sus datos personales como cookies, identificadores de dispositivo u otras tecnologías similares de su dispositivo y procesar dichos datos para personalizar contenido y anuncios, además de ofrecer funciones de redes sociales y analizar el tráfico.

  • Almacenar y/o acceder a información en su dispositivo

    Se puede almacenar o acceder a cookies, identificadores de dispositivo u otra información de su dispositivo para los fines anteriormente indicados.

  • Anuncios y contenido personalizados, medición de anuncios y contenido, percepciones del público, y desarrollo de productos

    Los anuncios y el contenido pueden personalizarse en base a su perfil. Se pueden añadir más datos para personalizar mejor los anuncios y contenidos. Se puede medir el rendimiento de los anuncios y contenidos. Se puede obtener la percepción sobre el público que ha visto los anuncios y contenidos. Dichos datos pueden usarse para desarrollar o mejorar la experiencia del usuario, sistemas y software.

Al hacer clic en ‘Estoy De Acuerdo’ usted permitirá el uso de las cookies, identificadores de dispositivo, balizas web u otras tecnologías similares indicadas. Su configuración puede cambiarse desde el navegador de su dispositivo.

Para ciertos fines, los intereses legítimos pueden ser considerados por encima del consentimiento. Puede leer más sobre ello en nuestra Política de Privacidad y Cookies.